Regional Weather Roundup
Issued by NWS

Home | Current Version | Previous Version | Graphics & Text | Print | Product List | Glossary On
Versions: 1 2 3 4 5 6 7 8 9 10 11 12 13 14 15 16 17 18 19 20 21 22 23 24 25 26 27 28 29 30 31 32 33 34 35 36 37 38 39 40 41 42 43 44 45 46 47 48 49 50
000
ASUS43 KOAX 171302
RWRNE

WEATHER ROUNDUP FOR NEBRASKA
NATIONAL WEATHER SERVICE OMAHA NE
800 AM CDT WED SEP 17 2014

NOTES: SATELLITE DATA IS BEING USED TO AUGMENT CLOUD COVER ABOVE
       12000 FEET.
       "FAIR" INDICATES FEW OR NO CLOUDS BELOW 12,000 FEET WITH NO
       SIGNIFICANT WEATHER AND/OR OBSTRUCTIONS TO VISIBILITY.

  * THESE STATIONS DO NOT REPORT WEATHER SUCH AS RAIN...SNOW OR FOG.

NEZ001>004-019>022-054>056-171400-
NEBRASKA PANHANDLE

CITY           SKY/WX    TMP DP  RH WIND       PRES   REMARKS
SCOTTSBLUFF    CLEAR     48  45  89 CALM      30.00R
ALLIANCE       PTCLDY    45  44  97 CALM      29.97F
CHADRON        PTCLDY    47  44  90 SW6       29.97R FOG
SIDNEY         PTCLDY    51  43  74 W10       30.00F
$$

NEZ057>060-069>072-079>082-171400-
SOUTHWEST NEBRASKA

CITY           SKY/WX    TMP DP  RH WIND       PRES   REMARKS
NORTH PLATTE   FOG       49  49 100 CALM      29.96R VSB<1/4
IMPERIAL       CLEAR     51  46  83 NW6       29.98R
MCCOOK         FOG       50  49  96 W3        29.95R VSB<1/4
OGALLALA       PTCLDY    49  48  99 CALM      29.97S FOG
$$

NEZ005>010-023>029-035>040-094-171400-
NORTH CENTRAL NEBRASKA

CITY           SKY/WX    TMP DP  RH WIND       PRES   REMARKS
VALENTINE      PTCLDY    48  47  96 CALM      29.94R
BROKEN BOW     FOG       47  46  97 CALM      29.94S VSB 1/4
O`NEILL        FOG       49  49 100 S3        29.93R VSB 1/4
ORD            FOG       45  45 100 CALM      29.93S VSB 1/4
THEDFORD       PTCLDY    51  51  99 CALM      29.96S
$$

NEZ041-046>049-061>064-073>077-083>087-171400-
SOUTH CENTRAL NEBRASKA

CITY           SKY/WX    TMP DP  RH WIND       PRES   REMARKS
GRAND ISLAND   CLEAR     51  48  89 CALM      29.94S
HASTINGS       CLEAR     50  46  86 CALM      29.94R
HEBRON         FOG       59  57  92 CALM      29.93R VSB 1/4
HOLDREGE       CLEAR     49  47  95 CALM      29.93S
KEARNEY *      CLEAR     48  45  87 CALM      29.95R
$$

NEZ011>018-030>034-042>045-171400-
NORTHEAST NEBRASKA

CITY           SKY/WX    TMP DP  RH WIND       PRES   REMARKS
NORFOLK        CLEAR     50  49  96 CALM      29.94R
ALBION         CLEAR     46  44  93 CALM      29.94S
COLUMBUS *     CLEAR     48  46  93 CALM      29.95R
TEKAMAH        CLEAR     53  52  96 CALM      29.93S
WAYNE          CLEAR     49  48  97 S3        29.94R
$$

NEZ050>053-065>068-078-088>093-171400-
SOUTHEAST NEBRASKA

CITY           SKY/WX    TMP DP  RH WIND       PRES   REMARKS
LINCOLN        PTCLDY    54  51  90 N3        29.94R
OMAHA EPPLEY   PTCLDY    59  53  80 CALM      29.93S
BEATRICE       CLOUDY    62  60  91 CALM      29.92R
FALLS CITY     CLOUDY    61  60  97 E6        29.92R
NEBRASKA CITY  CLOUDY    58  56  92 CALM      29.93S
PLATTSMOUTH    PTCLDY    57  54  89 CALM      29.94R
$$

NEZ044-045-051>053-067-171400-
OMAHA AREA

CITY           SKY/WX    TMP DP  RH WIND       PRES   REMARKS
OMAHA EPPLEY   PTCLDY    59  53  80 CALM      29.93S
OFFUTT AFB     CLEAR     56  56 100 E3        29.93R
PLATTSMOUTH    PTCLDY    57  54  89 CALM      29.94R
WAHOO          FAIR      54  52  92 CALM      29.93R
$$


USA.gov is the U.S. government's official web portal to all federal, state and local government web resources and services.